Theta_e
295 295 295 295 294 295 296 297 299 300 301 301 302 305 310 313 313 312 312 312 312 312 310 309 310 311 310 310 309 310 310 310 309 309 309 309 309 309 309 309 310 310 310 310 310 311 311 312 314 316 316 316 316 317 318 318 317 318 318 317 317 316 316 317 317 316 316 316 315 316 317 317 318 319 319 318 317 317 317 317 318 317 315 316 315 314 322
295 295 295 294 295 296 298 299 300 301 302 303 304 308 312 313 313 312 312 312 312 312 310 308 310 310 310 310 309 309 310 309 309 309 309 309 309 309 310 310 310 310 310 310 310 311 311 311 313 314 315 315 315 316 317 317 318 319 319 319 318 318 318 318 317 318 318 317 317 317 317 317 318 320 320 318 318 319 319 317 317 316 315 316 315 316 324
295 295 295 294 296 298 299 300 302 303 303 304 306 310 313 312 312 313 312 312 312 312 310 310 309 310 310 310 309 309 309 308 308 309 309 309 309 309 310 309 310 310 309 309 310 311 311 311 311 313 314 314 315 315 316 316 317 318 318 319 318 318 319 318 317 318 319 319 319 318 317 318 319 319 320 320 319 320 320 317 315 315 316 317 315 316 323
295 295 294 295 298 300 300 301 303 305 305 305 308 311 312 312 312 312 312 312 312 311 311 311 310 310 309 308 308 309 309 308 308 309 309 309 309 309 309 309 309 309 309 310 310 310 310 310 310 311 312 313 313 313 314 316 316 315 316 318 317 318 319 319 318 318 318 318 318 316 316 318 320 319 320 321 320 322 321 317 316 318 318 317 316 318 324
295 294 295 297 299 301 301 301 305 306 306 306 309 310 311 311 311 311 311 311 311 310 310 310 310 309 309 308 308 309 309 309 308 309 309 309 309 309 309 308 309 309 310 311 311 309 309 310 310 310 311 312 313 313 313 314 314 313 315 317 317 318 318 319 319 318 317 317 317 315 315 317 318 319 320 320 320 322 322 319 320 320 318 318 321 324 326
295 294 296 298 301 302 301 302 305 307 307 307 309 311 311 310 311 311 311 310 310 309 309 309 309 308 308 308 308 308 308 309 309 308 309 309 308 309 309 308 308 308 308 310 310 310 310 310 311 310 310 312 313 313 313 313 312 313 316 317 317 318 318 319 319 318 317 316 315 315 315 315 316 317 318 319 320 322 323 322 322 322 320 320 323 325 325
294 295 297 299 301 302 302 302 304 305 306 307 309 311 310 309 310 310 310 310 310 310 309 309 308 307 307 307 307 308 308 308 308 308 308 309 308 308 309 308 307 307 307 309 310 310 310 310 311 310 311 312 314 314 314 314 313 313 315 317 317 317 317 318 319 318 317 315 315 315 314 315 316 316 316 317 318 319 320 320 320 321 323 323 323 322 318
294 296 298 300 302 302 302 302 303 304 306 307 308 310 310 310 310 310 309 310 310 310 309 308 308 307 307 307 307 307 307 307 307 307 308 308 308 308 309 308 307 307 307 308 309 309 309 310 310 310 310 311 312 313 314 313 313 312 313 316 317 316 316 318 318 318 318 316 315 315 315 315 315 314 314 315 316 318 318 318 318 320 323 323 322 320 315
295 297 300 301 302 302 303 303 302 303 305 306 308 309 309 309 309 309 309 309 308 309 308 307 307 305 305 306 307 307 307 307 307 306 306 307 307 307 307 307 307 307 307 308 308 308 308 308 308 308 309 309 309 310 310 310 311 311 312 315 315 315 316 318 317 317 318 317 316 315 315 315 316 314 312 313 314 315 316 316 316 318 321 321 321 321 316
295 298 300 301 302 302 303 303 303 304 305 305 308 309 308 308 308 308 309 308 307 308 308 307 306 305 306 307 307 307 307 307 307 306 305 306 307 306 307 307 307 307 308 308 307 306 306 307 307 307 307 308 308 308 308 308 308 310 312 314 314 315 316 317 317 316 317 318 317 316 316 317 317 313 310 310 312 313 314 316 315 315 318 319 319 318 313
296 298 300 301 302 302 302 303 304 304 303 304 307 308 308 309 309 308 308 308 307 308 308 306 306 306 307 307 307 307 307 307 307 306 306 306 307 306 307 307 307 307 308 307 305 305 305 305 306 306 306 307 307 307 308 309 310 311 311 312 315 316 316 317 317 316 317 318 317 316 317 318 315 310 307 309 310 310 312 314 313 313 315 315 315 314 310
296 299 300 301 302 302 302 303 304 304 304 304 306 307 307 308 308 308 308 307 307 308 307 306 307 307 306 306 306 306 306 306 306 306 306 307 308 307 307 307 307 306 306 305 304 305 306 306 306 306 306 307 308 308 310 311 311 312 312 312 314 316 315 316 316 315 316 317 317 317 318 316 312 309 307 308 309 308 310 312 311 310 312 312 312 311 309
296 299 300 301 301 302 302 302 303 304 304 305 306 307 307 306 306 307 308 307 307 307 307 306 306 306 305 306 306 305 305 304 305 305 306 307 308 307 307 307 307 306 304 304 305 306 307 308 308 307 307 307 308 309 310 310 309 311 312 313 313 314 314 315 315 315 315 316 316 317 316 312 310 309 308 307 308 308 309 312 311 308 309 310 310 309 307
297 299 300 301 301 302 302 302 302 303 304 305 305 306 306 305 305 306 307 306 306 306 307 306 305 305 305 305 305 305 304 304 305 305 306 307 307 307 306 305 305 304 303 304 306 308 308 308 308 308 308 309 309 310 311 310 309 308 310 312 313 314 315 315 315 314 315 315 315 314 313 312 310 309 307 306 306 306 307 310 310 307 307 308 308 306 305
297 299 300 301 301 301 302 302 301 302 303 303 303 303 303 303 303 304 305 306 305 305 305 305 305 305 305 304 304 304 304 304 304 304 305 305 306 305 304 304 303 303 303 305 308 308 307 308 308 309 309 309 309 310 310 310 309 308 308 310 311 312 314 314 314 314 313 315 315 314 315 314 310 308 307 306 305 305 305 309 310 307 306 307 306 305 304
296 298 300 301 301 301 302 302 301 300 301 301 301 301 301 302 302 302 304 306 305 304 303 303 303 304 304 303 302 303 303 303 303 304 304 305 305 304 303 303 303 303 305 307 308 307 308 308 308 309 309 307 307 309 309 309 309 309 308 309 310 311 312 313 313 314 313 314 315 314 314 313 308 307 306 305 305 304 305 310 311 306 305 306 306 304 304
296 298 300 301 302 301 301 302 301 300 299 299 299 299 300 301 301 301 303 304 304 302 301 300 301 303 303 302 302 303 303 303 303 304 304 304 304 303 303 304 304 304 305 307 308 307 307 308 308 309 308 306 306 308 307 307 309 309 308 309 310 311 311 312 313 314 313 313 314 312 311 309 307 306 306 305 304 304 309 315 312 305 304 305 305 305 305
296 298 300 301 301 301 301 302 301 300 299 299 299 299 299 300 300 301 302 303 302 301 300 299 301 303 302 302 302 302 302 303 303 304 304 303 303 303 304 305 305 305 305 307 307 308 308 308 309 309 307 306 306 307 306 306 308 308 307 307 308 309 309 310 312 313 312 312 312 310 309 307 305 305 305 304 304 307 312 313 308 303 303 304 303 304 305
297 299 300 301 301 301 301 301 301 300 300 300 300 299 299 299 299 300 302 303 302 301 300 300 301 301 301 301 302 302 302 303 304 304 304 304 304 303 303 304 304 305 307 307 308 308 308 308 308 308 308 307 306 306 305 305 306 307 306 306 307 308 308 309 310 311 311 312 311 311 309 306 304 305 306 305 307 310 310 306 303 302 303 302 301 302 303
297 299 300 301 302 301 301 301 301 300 300 299 299 299 299 299 299 299 301 302 302 301 300 300 300 301 301 302 303 302 303 303 304 304 304 304 303 304 305 305 305 306 307 308 307 307 307 307 307 308 308 307 306 305 305 305 304 305 305 306 305 306 308 309 309 309 310 311 310 311 310 306 303 304 306 306 306 307 306 303 303 303 301 301 300 301 301
297 299 300 301 301 301 301 301 301 300 299 299 299 300 300 299 299 299 301 302 302 301 301 300 300 301 301 301 301 301 302 303 302 303 304 304 303 304 306 306 305 306 307 307 307 307 307 307 307 307 307 306 305 305 306 306 305 305 305 306 306 305 307 309 307 307 309 310 309 308 306 303 302 304 305 304 304 304 304 304 303 302 301 300 300 300 300
296 298 299 301 301 301 301 301 301 301 300 299 300 301 300 300 299 299 300 301 302 301 300 300 301 301 301 300 300 300 300 300 300 301 302 304 303 304 305 305 305 305 306 306 307 307 307 307 307 307 306 306 305 305 305 306 306 305 305 306 306 305 306 307 306 305 306 306 305 304 303 303 303 303 304 304 304 304 304 304 303 302 301 300 300 300 300
296 297 299 301 302 301 301 300 300 301 300 299 300 300 300 300 300 300 300 301 301 301 301 301 301 301 301 300 300 299 299 299 299 299 301 303 304 303 304 305 304 304 304 305 307 308 307 307 307 306 306 306 305 305 305 305 305 305 305 305 305 305 306 306 305 304 305 304 304 304 304 304 304 303 304 304 304 303 303 303 302 302 301 301 301 300 300
296 297 299 300 300 299 298 298 300 301 301 300 300 300 300 300 300 300 301 301 301 301 302 302 302 302 301 300 300 299 299 299 300 299 300 302 304 304 304 303 303 305 305 303 304 306 306 306 306 306 305 305 305 305 304 304 304 305 305 305 305 305 307 307 305 305 305 305 305 305 305 305 305 305 304 304 304 303 303 302 302 301 301 301 300 300 300
296 297 297 297 297 297 297 297 299 301 301 301 300 300 300 300 300 301 302 302 302 302 302 302 301 301 300 300 299 299 299 299 299 299 299 300 302 303 303 302 302 304 304 302 304 306 306 305 306 305 304 304 305 305 305 304 304 305 305 305 305 305 306 306 305 305 305 305 305 305 306 305 305 305 305 305 304 304 303 302 301 301 300 300 300 300 300
296 296 296 296 296 296 297 297 298 300 301 301 301 300 300 300 300 301 301 302 302 302 302 302 301 301 300 300 299 299 299 299 299 299 299 299 300 301 302 301 301 302 302 303 305 306 306 306 306 305 304 305 305 305 305 304 305 305 304 305 305 305 305 305 305 304 304 305 305 305 305 305 305 305 305 305 304 304 303 302 301 301 300 300 300 300 300
296 296 296 296 296 296 297 297 297 298 300 301 302 301 300 300 300 300 301 302 302 302 302 302 302 301 301 300 299 299 299 299 299 299 299 299 299 300 301 302 303 303 304 304 305 305 306 305 305 304 304 305 305 305 305 305 304 304 304 304 306 305 304 304 304 304 304 304 305 305 304 304 304 304 304 304 304 304 304 303 302 302 302 301 301 301 301
296 296 296 296 296 296 296 297 297 298 299 300 301 302 301 301 301 300 300 301 303 303 302 302 302 302 302 301 300 299 299 299 300 300 299 299 299 299 300 302 303 304 304 305 305 305 304 303 302 303 303 303 303 304 304 304 304 303 303 304 305 305 305 305 304 303 303 304 304 304 304 304 304 304 304 304 304 304 304 304 303 303 303 302 302 301 301
296 296 296 296 296 296 296 297 298 298 299 300 300 301 301 302 302 301 300 301 302 302 302 302 302 302 302 301 300 300 300 299 300 300 300 300 300 300 300 301 302 303 303 303 303 303 302 301 302 302 302 303 303 303 303 303 303 303 303 304 305 304 305 305 304 304 304 304 304 304 304 303 303 303 303 303 303 303 303 303 303 303 303 303 302 302 302
296 296 297 297 296 296 296 297 298 299 299 300 301 302 302 302 302 301 301 301 301 302 302 302 302 301 301 301 301 300 300 300 300 299 299 300 300 300 301 302 302 303 303 302 302 302 302 301 302 301 301 302 303 303 302 302 301 302 303 304 304 304 304 304 304 304 304 304 304 304 303 303 303 302 303 303 303 302 302 302 302 302 302 302 302 302 302
296 296 296 297 297 296 296 297 299 299 298 300 302 303 303 303 302 301 300 301 301 302 302 302 301 301 301 301 300 300 300 300 299 299 300 300 301 301 301 302 302 302 302 302 302 301 301 301 302 302 302 302 303 302 301 301 300 301 302 302 303 303 303 303 303 303 303 303 303 302 302 302 302 302 302 302 302 302 302 301 301 301 301 301 301 301 301
296 296 296 297 297 296 296 297 299 299 299 299 302 302 303 303 302 300 300 301 301 302 302 302 301 302 302 301 300 300 299 300 300 300 300 301 302 301 301 301 302 301 301 302 301 301 301 301 302 302 302 302 302 302 301 300 300 301 301 302 302 302 302 302 302 302 302 302 302 302 302 302 301 302 302 301 301 301 301 301 300 300 300 300 300 300 300
296 296 296 296 296 296 295 297 299 300 299 299 300 300 301 302 301 300 300 300 301 301 302 302 302 301 301 302 301 300 300 301 302 301 300 300 301 302 302 302 302 301 301 301 301 301 301 301 301 301 302 302 302 301 301 301 301 301 301 302 301 301 302 302 301 301 301 302 302 302 301 301 301 301 301 301 301 301 300 300 300 300 299 299 299 299 299
296 296 296 296 295 295 296 297 299 301 300 299 299 299 301 302 301 301 301 301 301 301 301 302 302 301 301 302 302 300 301 302 302 301 301 300 300 302 302 302 302 301 301 301 301 301 301 302 301 301 301 301 301 301 300 301 301 301 301 301 301 301 301 301 301 301 301 301 301 301 300 300 301 301 301 300 300 300 300 300 300 299 299 299 299 299 299
295 295 295 295 295 295 297 298 300 300 300 299 298 299 301 302 302 301 301 301 302 302 301 301 302 301 301 302 301 300 300 302 302 301 301 300 300 301 302 302 301 300 300 301 302 301 301 301 301 301 301 301 301 300 300 301 301 301 301 301 301 301 301 301 301 301 301 301 301 300 300 300 300 300 300 300 300 300 300 300 299 299 299 298 299 299 298
296 297 297 297 297 298 299 300 300 300 300 300 299 299 300 302 302 301 301 301 302 302 302 302 302 302 302 302 301 300 301 301 301 301 301 301 300 301 301 301 301 300 300 301 302 301 300 300 300 300 300 300 300 300 301 301 301 300 300 300 299 300 300 300 300 300 301 301 301 301 300 300 300 299 299 299 299 299 299 299 299 299 298 298 298 298 298
298 299 300 300 300 300 300 300 299 299 299 299 299 299 300 301 302 301 301 301 301 301 302 303 302 302 302 302 301 301 301 301 301 301 301 301 300 300 301 301 300 300 301 301 300 300 300 301 301 300 300 300 300 300 300 301 300 300 300 299 299 299 299 299 299 300 300 301 301 301 300 300 299 299 299 299 299 299 299 299 299 299 299 298 298 298 298
300 300 300 301 301 301 301 299 298 298 298 299 299 300 300 301 302 302 301 301 301 301 302 303 302 302 302 303 301 300 301 301 301 301 301 300 300 300 300 300 299 300 300 300 299 299 300 300 300 300 299 300 300 300 300 300 299 299 299 299 299 299 299 299 300 300 300 300 300 300 300 300 299 299 299 299 299 299 299 299 299 299 299 299 298 298 298
300 300 301 301 301 301 300 298 297 297 299 300 300 300 300 300 301 301 301 301 301 301 302 303 303 302 303 303 301 300 300 301 302 301 300 300 300 300 300 299 299 299 300 299 299 299 300 299 299 299 299 300 300 299 299 299 299 299 299 299 299 299 299 299 299 299 300 300 300 299 299 299 299 299 299 299 299 299 299 299 299 299 299 298 298 298 298
301 301 301 300 300 299 298 297 297 299 300 300 300 300 300 300 301 301 301 301 301 301 302 302 302 301 302 303 302 300 300 301 302 301 300 300 299 300 300 300 299 299 300 299 299 300 300 299 299 299 300 300 300 299 299 299 299 299 298 298 298 299 299 299 299 299 299 300 299 299 299 299 299 299 299 299 299 299 299 298 298 298 298 298 297 298 298
301 301 300 299 299 298 297 297 299 299 300 300 299 300 300 300 300 300 301 301 301 300 301 301 302 302 302 302 302 301 300 299 300 301 301 300 299 300 300 299 299 299 299 299 299 300 300 299 299 300 300 300 300 299 299 299 299 298 298 298 298 299 299 299 299 299 299 299 299 299 299 299 299 299 299 299 299 299 298 298 299 298 298 298 298 298 298
300 299 299 299 298 298 298 299 299 299 299 299 299 299 299 300 300 300 301 301 301 301 301 302 302 302 301 301 302 301 300 299 300 301 300 299 298 299 299 299 299 299 299 299 299 300 300 299 299 300 300 300 299 299 299 299 299 299 299 298 298 299 299 299 299 299 299 299 299 299 299 299 299 299 299 299 299 299 298 298 298 298 298 298 298 298 298
299 298 298 299 299 298 299 299 298 298 299 299 299 299 299 299 300 300 300 300 301 301 301 301 301 300 300 300 301 300 299 299 300 300 300 299 299 299 299 298 298 299 299 299 299 300 299 299 299 300 300 300 299 299 299 299 299 299 298 298 298 298 299 299 299 299 299 299 299 298 298 299 299 299 298 298 299 299 299 299 299 298 298 298 298 298 298
298 298 299 299 299 298 298 298 298 298 298 298 298 299 300 299 300 300 301 301 301 302 301 301 301 301 300 300 300 300 299 299 299 299 299 299 299 299 298 298 299 299 299 299 299 299 299 299 300 300 300 300 299 299 299 299 299 299 299 298 298 299 299 299 299 299 299 299 299 299 299 299 299 299 299 299 299 298 298 299 298 298 298 298 298 298 297
299 299 299 299 298 298 298 298 298 298 299 299 299 300 300 300 301 301 301 301 302 302 301 301 302 301 300 300 300 300 300 300 300 299 299 299 299 298 298 299 299 299 299 299 299 299 298 299 300 301 300 299 299 299 299 299 299 299 299 299 299 299 299 299 299 299 299 299 299 299 299 299 299 299 299 298 298 298 298 298 298 298 298 298 298 297 297
299 299 299 299 298 297 298 298 298 298 299 300 300 300 301 302 302 301 301 302 302 302 302 302 302 301 300 300 300 300 300 300 299 299 299 299 299 298 298 298 298 298 298 299 299 299 299 300 300 300 300 299 299 299 299 299 299 298 299 299 299 299 299 299 299 299 299 299 299 299 299 299 299 298 298 298 298 298 298 298 298 298 298 298 298 297 297
298 298 298 298 298 297 298 298 299 299 300 301 301 301 302 302 302 301 300 301 302 302 301 301 301 301 300 300 300 300 300 300 299 298 298 299 298 297 297 298 298 298 298 299 299 299 300 300 300 300 300 299 299 299 299 299 298 298 299 299 299 299 299 299 299 299 299 299 299 299 299 299 299 299 298 298 298 298 298 298 298 298 297 298 298 298 298
298 298 298 298 298 298 298 299 300 300 300 300 300 301 301 301 301 301 300 301 302 301 301 300 301 300 300 300 300 300 300 299 299 298 298 298 298 297 297 297 298 298 298 299 299 299 300 300 300 300 299 299 299 299 299 299 299 299 299 299 299 299 299 299 299 299 299 299 299 299 299 298 299 299 298 298 298 298 298 298 298 298 298 298 298 298 298
298 298 298 298 298 299 300 300 301 301 300 300 300 301 301 302 302 300 300 300 301 301 301 301 301 300 300 300 300 299 299 299 299 298 298 298 297 297 297 297 298 298 298 299 300 300 300 300 300 299 299 299 299 299 299 299 299 299 299 299 299 299 299 299 299 299 299 299 299 299 299 299 298 298 298 298 298 298 298 298 298 298 298 298 298 298 298
298 298 298 299 299 299 300 300 301 301 301 301 301 301 301 301 301 300 299 300 301 300 300 300 300 300 300 299 299 298 299 299 299 298 298 298 297 297 297 297 298 298 299 300 300 301 300 299 299 299 299 299 299 299 299 299 299 299 299 299 299 299 299 299 299 299 299 299 298 298 298 298 298 298 298 298 298 298 298 298 298 298 298 298 298 298 298
299 299 299 299 299 300 300 301 301 301 301 301 302 301 301 301 301 300 299 300 300 300 300 300 300 299 299 299 298 298 299 299 298 298 298 298 297 297 297 298 298 299 300 300 300 300 299 299 300 300 300 299 299 299 299 299 299 299 299 299 299 299 299 298 298 299 299 299 299 298 298 298 298 298 298 297 298 298 298 298 298 298 298 298 298 298 298
299 299 299 299 299 300 301 301 301 302 301 301 301 301 302 301 300 299 299 300 301 301 300 300 300 299 298 298 299 299 299 298 298 298 298 298 298 298 298 299 299 300 300 300 300 300 300 300 299 299 299 299 298 298 299 299 299 299 299 299 299 299 298 298 299 299 299 299 298 298 298 298 298 298 297 297 298 298 298 298 298 298 298 298 298 298 297
Wind_Speed
7 6 6 5 5 5 6 7 6 3 2 2 6 6 8 8 4 7 10 7 3 2 2 4 2 1 3 2 1 1 1 2 2 2 2 2 2 3 2 2 2 1 2 4 4 3 3 1 0 1 3 6 6 7 6 1 3 3 2 3 4 2 3 6 6 6 6 2 3 3 3 3 4 2 0 3 5 6 6 5 4 5 6 5 6 7 2
6 5 5 5 4 5 6 6 5 2 1 3 7 6 7 8 8 8 9 7 3 2 1 3 2 3 3 2 3 3 0 1 1 0 0 1 1 2 2 1 2 1 2 4 4 4 3 0 2 1 1 4 4 7 8 4 2 2 2 1 3 4 3 4 5 6 7 6 6 6 4 5 5 1 2 2 4 5 5 5 5 7 8 6 6 5 1
5 4 4 4 3 5 6 6 4 1 2 5 8 8 8 9 8 7 7 5 1 0 2 1 2 4 3 3 4 3 3 3 2 2 3 3 2 2 1 1 3 3 2 3 3 2 2 1 1 0 0 3 4 5 9 8 5 6 9 6 3 4 2 4 6 6 7 6 4 2 2 4 2 1 2 3 3 4 5 5 6 8 8 8 8 4 3
4 3 3 2 3 6 6 5 3 1 4 6 10 11 9 7 5 5 7 5 2 2 3 1 1 3 3 3 2 1 3 4 2 1 2 3 3 2 2 1 3 3 3 4 3 1 1 2 1 1 0 2 4 3 5 6 7 7 10 8 2 3 2 4 6 6 5 4 1 2 4 6 3 1 3 5 4 3 4 4 4 4 6 7 7 4 6
2 3 2 2 3 6 5 4 3 1 5 8 11 11 6 4 4 4 5 4 3 4 3 1 2 2 1 1 2 1 2 3 2 0 2 3 2 1 2 2 1 2 3 4 3 2 2 2 1 1 2 1 3 4 3 4 8 7 5 5 3 3 3 5 6 6 3 2 2 2 4 6 3 4 5 6 7 4 5 5 1 3 6 4 5 5 4
2 3 2 1 3 5 5 3 3 3 7 10 11 9 5 2 3 3 4 3 3 3 4 3 4 3 2 1 1 2 2 2 2 2 1 1 1 1 1 2 2 2 3 3 3 3 3 1 1 1 2 1 2 4 5 5 7 4 1 1 2 2 2 4 6 4 2 2 1 3 2 1 4 5 5 6 7 5 3 3 4 5 4 2 3 4 4
3 3 2 1 3 5 4 2 2 3 6 10 9 7 4 3 4 4 3 2 3 5 5 5 5 4 2 1 2 2 3 3 2 1 1 2 1 2 1 1 2 3 3 3 2 2 2 1 3 3 4 3 1 2 4 4 5 5 1 1 0 1 2 3 5 4 4 4 3 4 5 4 5 5 5 5 5 4 3 4 6 6 4 2 5 8 10
4 4 2 1 3 4 4 2 2 3 5 8 8 6 5 5 4 5 5 4 6 6 5 4 4 3 1 1 3 2 3 4 3 2 0 1 1 1 1 1 2 2 2 2 1 3 3 2 3 4 4 2 2 1 1 2 3 3 3 2 1 2 3 4 4 4 5 5 4 4 4 4 5 6 8 7 5 4 4 5 6 5 2 3 5 7 7
5 4 3 2 3 4 4 2 2 3 5 7 6 5 6 6 6 8 7 4 4 4 4 2 2 3 1 1 2 2 2 4 2 2 3 2 2 2 2 2 1 1 2 2 1 4 4 4 4 6 5 3 3 2 2 4 4 2 1 1 2 3 2 4 5 5 4 6 6 5 5 3 2 6 10 9 7 6 5 5 6 5 4 1 2 3 4
6 5 3 3 3 4 4 2 2 3 5 6 4 4 6 6 7 9 7 2 1 3 3 2 2 2 3 2 2 1 2 3 0 1 2 0 1 2 3 3 2 3 3 1 2 3 5 8 8 7 6 5 4 3 3 4 4 3 2 2 2 3 4 4 5 5 4 6 7 6 5 4 2 3 7 7 6 7 7 4 7 8 6 2 1 3 5
7 6 3 2 3 4 4 3 3 4 5 5 5 6 8 7 7 7 6 3 3 3 3 2 1 2 3 3 3 2 2 2 1 1 1 2 1 0 2 3 3 2 1 2 4 6 8 8 7 6 6 6 5 4 3 3 3 4 4 4 3 4 5 3 3 4 2 5 6 6 5 3 1 3 4 4 4 8 7 4 8 9 5 3 4 5 6
8 6 4 2 3 4 5 4 3 3 5 6 6 7 8 9 8 6 6 4 4 4 3 1 3 3 4 4 4 3 2 1 1 2 2 1 1 2 2 3 3 1 3 4 8 8 6 4 4 4 5 6 6 5 3 1 1 2 4 5 4 3 4 3 3 3 1 4 6 6 3 1 3 3 6 5 2 6 6 2 7 10 7 5 5 6 7
9 7 4 2 3 4 5 5 4 4 5 6 7 6 7 9 8 4 4 3 4 3 2 4 5 4 5 4 3 2 1 2 1 2 4 3 2 2 2 2 3 3 5 8 8 6 5 4 4 3 5 7 6 6 4 5 7 5 1 3 4 4 4 3 3 2 2 4 4 2 2 4 4 3 8 8 2 5 5 0 6 11 8 5 4 6 8
9 8 5 3 3 4 5 6 6 6 6 6 7 6 7 9 7 4 3 2 3 3 2 4 5 5 4 3 2 3 3 4 4 4 4 4 3 3 2 2 4 6 7 7 6 5 4 3 3 3 4 5 5 6 6 6 8 9 6 2 2 4 4 4 3 3 2 2 2 3 3 4 5 3 6 6 3 5 5 2 4 10 8 3 4 6 8
10 9 6 3 3 4 5 6 7 8 8 8 8 7 7 8 7 6 4 3 4 4 1 1 3 4 3 1 2 3 3 3 3 4 4 4 4 4 2 3 6 6 5 5 4 3 3 2 3 4 3 3 3 3 4 3 4 7 6 4 1 2 2 3 2 3 3 2 3 3 3 3 5 6 7 7 5 4 4 3 1 7 8 3 5 6 8
10 9 6 4 3 4 5 6 8 8 9 9 8 8 7 6 7 8 6 4 4 4 2 4 3 3 2 2 0 1 2 1 1 2 5 5 4 4 2 4 5 3 4 5 3 2 2 2 3 2 0 0 2 1 1 1 3 6 6 6 4 2 2 2 2 3 3 3 3 2 1 2 5 8 9 10 7 3 4 4 1 5 8 4 7 9 9
11 10 7 4 3 3 4 5 7 8 10 10 9 8 7 6 7 8 7 6 7 5 4 4 2 3 2 2 2 1 1 1 1 2 1 3 3 2 1 2 3 3 4 5 3 2 2 1 2 1 2 2 2 2 1 1 1 3 4 5 5 3 1 2 3 3 2 2 3 3 3 3 7 11 12 11 6 3 3 2 1 5 6 6 8 9 9
11 10 8 6 4 3 4 5 6 7 9 8 7 7 7 6 7 8 8 9 10 8 6 5 3 2 3 3 3 2 2 1 1 1 1 2 2 1 2 1 2 3 4 4 2 1 1 1 1 1 2 1 2 1 1 2 1 3 3 2 3 5 3 1 3 4 3 3 5 5 3 3 10 14 12 9 3 3 1 3 2 4 6 8 8 7 7
12 11 9 7 5 4 4 5 6 7 6 5 5 6 6 6 9 10 10 10 11 10 8 9 9 8 7 7 5 4 3 2 1 1 1 2 1 2 2 1 1 1 3 3 1 1 1 2 2 1 3 3 1 1 2 2 2 3 3 2 2 3 2 2 2 3 3 4 6 5 4 5 13 17 12 7 2 1 2 4 3 5 7 8 9 9 9
12 12 10 8 6 5 5 5 7 8 7 8 9 10 8 7 8 10 11 14 17 15 11 10 10 9 8 7 5 4 4 3 3 3 2 2 3 2 3 3 1 1 2 2 1 1 1 3 3 2 3 5 2 1 4 5 5 4 3 3 4 3 1 4 5 4 3 5 5 4 3 6 17 17 8 6 6 2 4 6 6 7 8 9 11 12 13
12 12 11 9 7 6 6 6 7 9 10 12 15 16 15 12 11 12 15 17 18 15 11 9 10 9 8 9 8 7 6 5 5 5 4 4 4 3 1 2 2 1 0 1 1 1 1 3 4 3 4 4 2 1 3 5 6 6 4 2 3 5 3 3 3 3 2 4 5 4 1 7 15 11 5 6 7 3 5 8 8 7 8 10 14 15 15
11 12 11 9 9 7 6 6 7 9 12 13 14 14 14 14 13 15 18 18 17 17 15 14 13 13 12 11 10 9 8 7 7 6 4 3 5 4 2 3 3 2 2 2 1 3 2 2 4 4 4 4 3 3 2 3 5 7 5 3 4 6 6 8 8 6 7 7 4 3 3 6 9 9 7 8 8 7 7 9 9 8 9 13 18 20 20
10 11 11 10 9 8 6 7 8 9 11 11 11 12 13 14 14 16 19 21 22 21 17 13 12 12 11 11 11 11 10 8 9 9 6 3 3 5 5 4 3 3 2 2 2 3 4 4 4 5 5 4 4 5 6 6 6 7 7 7 7 6 6 8 9 9 10 11 8 5 6 8 10 10 9 10 10 9 9 10 11 11 13 18 22 24 24
10 11 11 10 9 8 7 8 9 10 11 11 11 13 16 17 18 18 18 18 19 16 12 9 9 8 9 10 12 13 12 10 10 11 10 7 5 4 5 4 3 3 3 4 5 5 6 5 4 5 6 3 2 5 7 7 6 6 7 8 8 7 7 8 7 6 6 7 8 9 11 12 13 13 13 13 12 11 11 12 14 15 17 20 22 22 21
9 10 10 10 9 8 8 9 10 11 11 11 11 13 16 17 16 12 10 10 11 11 9 9 9 9 9 11 13 14 14 13 11 11 12 11 9 7 6 7 7 6 7 9 8 6 7 5 4 7 7 3 3 4 6 6 5 5 5 6 5 4 5 7 10 9 8 8 11 14 15 15 15 15 16 16 15 15 14 15 17 19 20 20 19 19 19
8 9 9 9 9 8 8 9 10 11 11 12 12 12 14 13 9 7 8 11 11 10 9 8 9 10 10 12 14 14 13 13 13 12 11 11 10 9 11 12 13 11 11 11 8 7 9 7 5 6 6 4 5 6 7 7 7 7 7 7 4 2 4 7 11 11 10 11 13 14 15 15 15 16 16 16 16 17 16 17 18 20 21 20 19 18 18
8 8 9 9 9 8 8 8 9 10 11 12 11 11 12 10 8 10 13 11 7 6 7 8 10 11 12 13 14 13 12 12 12 12 12 11 9 9 11 13 12 11 11 11 10 10 12 11 8 7 8 8 9 9 8 9 9 9 8 7 5 4 6 6 8 8 7 8 8 8 9 11 12 14 15 14 15 16 16 16 16 17 18 19 18 17 16
8 8 8 9 9 9 8 8 8 9 10 11 11 11 10 8 8 11 10 4 2 6 10 11 11 10 10 11 12 11 11 12 12 12 12 12 9 8 9 9 8 7 8 9 10 11 11 9 8 8 8 7 7 8 9 9 9 9 8 8 8 6 4 3 6 8 9 10 10 9 11 13 13 12 12 12 13 14 14 14 13 13 14 15 15 15 13
7 8 8 9 10 10 9 9 8 9 10 10 11 11 9 7 7 7 5 4 9 14 14 12 9 7 7 8 9 9 11 12 12 12 12 12 12 11 11 10 10 10 11 13 13 12 11 9 7 7 6 3 3 5 7 8 8 9 9 10 11 10 9 9 12 13 12 12 12 12 14 15 13 11 11 11 12 12 12 12 11 10 10 10 10 10 10
8 8 8 9 10 11 10 10 10 9 10 11 11 10 8 7 6 5 6 12 16 14 11 9 8 6 7 9 9 9 10 11 12 14 15 15 16 15 14 15 15 13 13 15 14 11 10 10 8 6 5 4 3 5 6 7 8 10 11 12 13 12 12 13 12 12 12 12 11 13 14 14 12 11 10 9 9 10 10 10 9 8 8 7 6 6 6
8 8 8 9 10 12 12 11 10 10 10 10 9 6 6 7 7 8 13 16 13 9 9 10 9 7 7 8 9 9 10 11 12 14 16 16 16 16 15 15 15 14 14 15 15 11 9 8 7 6 5 5 5 5 7 7 8 9 12 13 14 14 14 14 13 14 14 13 13 14 14 12 10 9 8 8 7 8 8 8 7 6 6 5 5 5 5
9 9 9 10 11 12 12 11 10 9 9 7 5 4 6 10 11 13 15 13 9 8 9 9 6 5 5 5 6 7 9 10 10 11 12 12 12 13 15 15 16 17 15 13 11 10 8 8 10 10 8 7 6 6 7 8 8 9 12 13 13 13 14 14 14 14 13 11 11 11 11 9 7 7 8 8 7 6 7 7 6 6 5 5 5 5 6
9 10 10 11 12 13 12 11 10 9 7 6 5 7 10 13 14 14 13 11 8 7 6 5 4 4 4 4 4 6 6 7 7 8 10 10 9 10 12 12 12 13 13 10 7 6 6 10 14 12 9 9 9 7 7 8 10 11 12 12 12 12 13 12 12 12 10 8 7 8 9 9 7 7 7 7 6 5 6 5 5 5 5 5 5 5 5
11 11 12 12 12 13 12 12 11 9 8 8 9 10 11 13 14 14 12 10 8 6 4 3 3 4 4 4 3 5 5 5 5 6 8 10 9 8 9 10 10 10 11 9 8 8 8 10 12 10 9 10 11 8 6 9 12 12 11 11 10 10 10 10 10 9 9 8 8 8 9 8 7 7 7 6 5 5 5 5 4 4 3 3 3 3 3
13 13 13 13 13 13 13 12 11 9 9 9 10 10 11 12 13 14 12 8 6 5 4 2 2 4 5 4 3 5 6 6 6 6 6 8 10 8 7 9 10 8 6 6 7 9 8 5 5 7 8 8 8 6 6 9 12 11 10 10 8 7 7 7 6 6 6 6 7 7 6 6 5 6 5 5 4 4 4 4 3 2 1 1 2 2 2
15 15 15 14 15 14 11 10 10 9 8 10 10 10 11 12 12 12 10 6 3 3 4 3 2 2 3 4 5 5 5 6 7 6 5 6 7 7 6 9 8 5 3 5 7 8 5 2 2 5 7 6 6 7 8 9 11 10 10 9 8 6 5 5 4 4 4 4 4 4 4 4 4 3 3 3 2 2 2 2 2 2 2 2 2 3 3
16 16 16 15 14 12 8 8 9 9 9 11 12 12 12 12 10 9 7 4 3 4 3 3 2 2 2 4 5 3 2 3 5 4 4 4 4 5 6 7 5 2 3 6 7 6 4 3 3 6 6 6 7 8 8 9 10 10 9 9 9 8 8 7 5 3 3 3 3 2 2 1 1 1 1 0 1 1 1 2 3 4 5 6 5 5 5
16 16 16 13 10 7 6 7 9 11 13 15 14 11 10 8 8 7 4 3 4 4 2 2 4 4 2 3 4 2 1 2 4 4 3 3 2 3 4 4 2 1 3 6 5 4 4 4 5 6 7 8 9 9 9 9 10 10 9 9 9 9 8 8 6 4 2 2 2 1 0 1 1 1 2 1 1 1 2 3 3 4 5 6 6 6 6
16 15 12 9 6 5 6 9 12 14 15 13 9 7 5 4 4 4 2 2 3 4 2 2 4 3 2 3 5 3 2 2 4 5 3 2 1 1 2 2 1 2 4 5 3 2 3 4 5 5 6 8 10 10 9 9 10 10 9 10 10 9 8 8 8 7 5 4 3 3 2 2 2 2 2 2 2 2 3 3 4 4 5 5 5 5 5
14 11 8 6 5 7 10 14 15 14 11 7 4 4 3 2 2 2 2 2 3 2 2 2 5 4 2 3 5 4 2 1 1 4 5 3 2 2 3 3 1 2 4 5 2 2 2 5 5 5 6 8 10 10 9 9 9 9 9 9 9 8 8 8 7 7 6 6 5 4 2 1 1 0 1 2 2 3 3 4 4 4 4 4 4 3 3
12 9 7 7 9 12 15 15 13 8 5 4 3 2 2 2 2 1 2 3 3 3 2 4 6 5 3 3 4 5 5 5 5 5 5 4 3 1 3 4 1 1 3 4 2 2 3 5 5 4 6 10 12 11 9 9 9 9 9 8 8 7 7 7 7 7 6 6 5 5 5 4 3 2 2 1 3 3 3 3 4 4 3 2 1 1 2
10 9 10 12 14 16 14 10 6 3 2 2 2 2 1 2 3 2 1 1 2 4 4 3 4 6 7 6 5 5 5 5 4 2 3 3 2 1 2 3 2 2 3 4 3 3 4 4 4 5 8 12 13 11 10 9 9 8 7 7 7 6 6 6 6 6 6 5 5 4 4 4 3 2 2 3 3 4 4 4 4 4 3 3 3 3 3
11 13 15 14 13 10 8 4 3 2 1 1 2 2 1 2 2 1 1 2 3 5 5 5 7 9 8 6 5 5 5 5 3 2 2 3 2 1 2 2 1 1 3 3 4 4 4 4 4 7 11 14 13 11 9 9 8 7 7 6 6 5 5 5 5 5 5 5 4 4 3 3 3 3 4 4 4 5 5 5 5 6 6 6 6 6 6
14 14 13 9 6 5 4 2 1 1 1 1 2 2 3 4 3 2 3 5 6 6 7 8 9 7 5 4 4 4 4 3 3 3 3 3 2 1 2 2 2 3 3 4 4 3 3 3 4 10 14 14 12 10 10 9 7 6 5 4 3 3 3 3 3 3 3 3 4 4 3 3 3 4 4 4 4 5 5 4 4 4 5 5 5 5 5
13 10 8 5 2 1 2 1 1 1 1 2 2 3 3 5 4 3 4 6 7 9 9 9 8 8 7 5 3 2 2 3 3 2 2 2 2 2 2 2 3 3 3 3 3 3 3 3 6 12 16 14 12 11 9 8 6 5 4 3 2 2 1 1 2 3 3 3 4 4 4 4 4 4 4 4 5 5 4 4 4 4 3 4 4 4 5
9 7 6 4 1 1 0 1 2 2 2 2 2 2 2 3 4 6 7 8 9 11 11 9 8 8 8 4 2 3 3 4 3 2 0 1 2 2 2 2 2 2 2 3 4 4 4 5 10 14 15 14 12 10 8 7 6 5 3 3 2 1 1 2 2 4 4 4 4 4 5 5 5 5 5 5 5 5 5 6 6 6 6 6 6 6 7
6 6 4 2 1 1 1 1 1 1 1 2 2 1 3 7 10 11 11 10 10 12 12 9 7 7 7 4 3 4 4 3 3 2 0 1 3 3 1 2 2 2 3 4 5 4 3 7 13 15 14 12 11 9 7 7 6 5 3 3 2 2 2 3 4 4 5 5 5 5 5 6 6 6 6 7 7 6 6 6 7 8 8 8 8 8 9
5 5 3 1 2 3 2 2 3 3 3 3 4 5 8 11 11 11 12 11 11 12 11 9 7 7 5 3 2 4 4 4 3 2 1 1 3 2 2 2 2 2 2 3 3 3 6 10 14 15 13 11 9 8 7 6 5 4 3 2 2 2 3 3 4 5 5 5 5 6 6 7 7 7 7 8 8 8 7 7 7 8 8 8 8 8 9
5 4 2 1 2 1 2 3 5 5 5 6 7 8 10 11 11 11 12 12 11 10 8 6 5 5 4 2 2 3 3 2 2 2 2 2 2 2 2 3 3 3 3 2 2 5 9 13 14 14 12 10 9 7 6 4 3 2 2 2 2 2 3 4 5 5 5 6 6 6 6 7 7 7 8 8 8 8 9 9 9 9 9 9 9 9 10
3 3 2 2 2 3 4 5 5 5 7 9 9 9 11 12 12 12 12 11 10 9 8 6 4 3 3 2 2 3 2 2 2 3 3 3 2 2 2 3 3 3 3 4 6 10 14 15 14 13 11 9 7 5 4 2 1 1 1 1 2 3 4 5 5 5 5 5 5 5 6 6 7 7 7 8 9 9 10 10 10 10 10 10 10 11 11
2 2 2 2 2 4 6 7 7 7 9 10 10 11 12 12 12 12 12 11 9 8 6 5 4 3 3 2 2 2 3 2 2 2 2 2 2 2 3 2 2 3 6 9 11 13 14 13 12 11 9 7 5 4 2 1 1 1 1 1 2 3 4 4 5 5 4 4 4 5 5 5 6 6 7 8 9 9 9 9 9 8 8 9 10 11 11
2 3 2 2 3 4 6 7 9 10 10 10 11 10 10 10 12 13 12 10 7 5 5 5 4 3 2 2 2 3 3 2 2 2 2 2 2 2 1 2 4 7 10 13 13 13 12 11 10 9 7 5 4 2 1 0 1 1 1 2 2 3 3 3 3 3 3 3 3 4 4 5 6 7 8 8 8 8 8 8 7 7 8 9 10 10 10
Wind_Direction
300 294 286 291 299 313 328 336 345 353 352 153 159 162 176 183 136 134 168 168 153 239 179 135 173 141 95 71 93 101 295 236 201 188 206 224 215 218 243 272 295 346 3 331 327 345 348 1 143 183 94 77 50 26 20 320 241 245 215 130 131 179 246 249 243 250 251 227 140 172 186 221 228 209 286 264 259 260 256 263 271 248 235 230 248 251 172
299 289 284 290 300 320 332 339 344 341 342 157 161 166 171 153 121 135 167 164 175 251 167 144 144 107 110 133 133 133 81 6 327 230 81 28 295 245 239 287 316 340 355 315 319 343 328 322 77 36 86 84 60 24 18 23 57 25 4 58 182 203 217 234 242 245 233 212 189 182 194 234 239 167 80 313 282 268 259 259 254 250 248 238 243 252 121
297 282 281 287 310 328 334 341 342 300 191 167 158 154 158 148 126 138 162 158 167 333 46 69 119 117 124 118 117 145 138 72 20 14 47 37 1 308 291 347 315 307 301 276 284 337 317 301 36 295 144 85 81 18 360 7 45 37 10 356 252 230 207 210 237 243 232 233 223 183 241 262 245 141 68 12 318 263 250 250 238 242 248 239 243 251 122
293 270 273 288 325 334 339 351 345 215 183 169 156 152 162 167 153 150 160 169 169 107 76 9 132 129 133 116 97 176 149 105 64 4 53 63 40 12 21 343 290 290 298 270 245 266 297 291 308 266 270 75 80 45 357 6 26 21 6 359 291 229 216 210 232 242 245 283 9 90 288 285 283 329 7 15 351 294 255 241 227 252 255 236 244 238 160
285 244 257 293 336 342 349 2 3 151 170 166 155 156 175 190 174 160 160 172 177 154 144 134 105 114 157 125 73 47 151 129 121 90 39 59 51 16 32 19 301 303 315 280 257 278 262 249 297 336 340 29 96 95 117 66 28 14 357 345 300 245 223 204 219 233 246 339 37 130 266 287 324 354 353 1 359 327 251 242 280 295 258 242 302 302 173
233 211 223 300 350 352 357 10 32 103 151 159 157 165 194 192 142 154 175 178 170 153 140 121 110 107 100 90 76 76 108 144 138 114 99 75 17 309 83 48 28 19 345 293 270 278 254 218 30 9 358 338 151 135 131 91 35 18 202 246 295 277 244 194 205 213 157 117 120 120 112 9 19 11 359 353 354 352 288 294 354 336 289 292 337 342 71
208 195 189 38 8 3 6 20 74 108 141 158 166 177 185 154 119 136 171 156 92 96 109 127 128 107 86 105 100 70 73 99 104 79 174 162 35 340 242 56 30 32 2 303 289 316 293 47 56 30 5 345 257 172 140 104 40 31 55 115 119 264 248 194 204 200 151 146 156 134 122 100 69 38 19 358 346 359 358 354 356 337 331 46 92 88 70
195 183 168 65 25 16 12 24 125 129 139 159 175 181 177 171 144 141 146 113 98 107 123 148 142 117 131 132 100 72 60 82 99 81 4 164 90 2 282 35 13 14 359 307 322 50 20 16 34 6 347 346 345 6 83 25 8 18 11 358 329 268 217 179 203 209 160 150 158 153 146 118 89 58 32 17 5 11 12 7 354 326 334 70 107 102 76
185 176 154 74 38 31 22 37 122 135 139 148 163 184 187 179 158 159 157 121 116 141 138 162 168 134 143 117 112 139 77 61 86 102 60 22 46 42 1 2 339 245 256 266 122 72 15 330 328 322 303 303 337 347 357 343 333 324 335 325 305 289 227 180 215 229 176 163 172 156 152 163 108 53 27 13 9 4 349 2 10 345 335 20 157 134 99
179 171 141 77 54 45 34 47 112 142 147 141 150 180 181 170 159 169 174 137 160 186 153 175 199 104 83 90 115 133 85 70 220 147 113 90 26 40 3 340 306 247 221 185 64 26 329 310 304 296 280 275 285 283 288 302 292 281 270 226 232 250 229 198 216 232 181 163 173 164 173 210 207 45 12 352 357 354 339 1 25 3 338 322 341 49 92
174 169 146 87 64 57 40 45 102 148 157 148 151 159 164 166 161 173 188 166 153 191 189 189 182 99 110 142 152 154 134 137 260 307 141 160 190 298 306 303 296 294 82 56 360 324 307 298 288 273 257 249 243 245 263 264 258 269 266 252 244 241 244 237 224 241 198 151 172 187 202 234 163 82 6 332 341 355 349 8 21 11 12 36 46 74 107
173 167 151 103 66 59 47 46 82 138 153 151 155 155 163 168 162 175 204 181 144 187 205 106 75 112 142 156 165 167 170 173 341 336 322 333 327 234 239 270 288 1 29 341 318 305 287 260 239 221 211 208 200 197 193 121 52 289 260 260 270 260 255 250 232 251 169 147 184 207 211 19 140 121 21 4 344 350 346 24 32 19 20 43 75 109 110
171 170 159 118 68 54 50 48 69 117 140 149 153 150 158 164 159 171 213 182 138 173 183 105 99 125 141 150 176 184 213 258 274 296 283 276 259 227 221 251 296 331 326 313 305 287 259 231 216 205 185 176 178 184 157 82 49 34 5 257 263 261 251 232 219 240 198 181 204 215 107 75 123 121 20 16 9 350 339 68 49 24 8 22 81 109 105
171 173 164 127 73 52 48 48 66 102 125 138 143 142 150 159 156 158 192 184 120 112 134 137 138 145 144 150 211 235 235 241 239 236 240 240 243 246 223 247 294 310 311 304 283 253 247 235 219 212 184 178 196 196 162 96 50 35 34 14 267 260 258 244 217 208 217 191 105 107 146 105 80 45 14 9 345 342 332 281 38 24 12 34 103 112 113
175 176 166 140 86 56 48 49 68 94 111 121 125 125 135 151 160 159 161 155 134 135 151 123 131 150 159 152 275 272 245 228 232 218 198 206 237 242 237 271 288 297 294 284 260 229 238 249 244 237 204 202 236 211 180 145 84 66 55 39 343 249 264 288 252 209 232 211 128 126 185 134 51 9 360 358 330 308 293 254 34 20 11 45 119 114 115
176 175 166 151 107 69 53 54 69 87 100 109 114 119 125 137 147 149 150 145 140 141 100 64 87 143 156 124 132 290 282 252 260 222 184 181 208 221 241 280 284 280 260 254 242 216 219 231 260 276 270 328 313 291 259 247 141 110 86 78 90 161 204 261 248 205 220 211 163 107 100 83 21 348 344 346 331 283 257 234 155 23 14 64 122 122 126
175 174 168 156 125 87 65 63 71 84 94 96 96 105 118 129 135 136 133 122 108 91 82 91 124 186 172 134 140 114 350 325 278 272 194 153 174 202 237 275 248 226 244 245 222 200 201 197 249 270 82 57 295 258 289 328 120 93 61 73 85 90 132 216 215 187 175 171 128 86 72 51 1 341 335 335 325 234 228 242 79 36 36 77 104 114 122
174 172 167 158 137 110 87 77 79 90 96 90 82 91 105 119 137 139 130 119 108 92 89 95 92 112 100 74 81 80 15 332 235 270 231 131 141 289 345 321 215 199 230 241 215 184 167 112 353 9 101 102 277 273 330 328 9 45 27 36 67 62 57 218 186 142 117 116 111 94 84 32 353 339 336 335 303 194 236 342 39 58 59 67 66 74 88
174 168 165 161 146 129 109 90 87 92 92 83 83 93 99 109 129 135 126 118 113 105 102 97 88 88 89 82 85 89 64 34 358 296 201 141 73 347 320 270 217 200 219 221 198 141 132 108 81 65 108 118 102 42 38 10 8 31 34 27 25 35 41 52 96 104 100 111 111 107 105 38 353 336 334 349 327 201 29 27 86 91 69 60 56 64 87
171 167 167 162 150 142 127 108 101 99 95 92 92 91 94 108 132 141 130 119 114 110 105 98 91 87 81 73 66 61 53 38 16 5 25 56 17 302 215 174 160 211 201 185 143 95 87 104 110 98 88 95 98 70 82 79 57 35 38 52 27 340 326 90 76 61 82 102 91 87 100 16 350 338 340 18 13 24 76 86 102 87 67 67 71 77 95
169 167 167 161 153 149 139 127 117 109 106 104 95 89 89 97 117 139 136 124 116 112 110 103 94 85 75 66 56 47 38 24 12 6 13 34 15 313 213 88 47 336 287 13 90 106 62 83 105 105 90 95 125 176 107 90 74 51 28 36 28 348 339 86 60 357 35 84 64 48 11 331 343 354 25 30 18 47 106 106 102 84 73 85 88 87 96
168 168 166 160 154 150 143 139 132 124 121 114 100 96 100 100 108 126 130 120 110 109 110 105 92 80 71 66 61 54 44 35 29 18 5 28 34 28 53 62 47 40 6 336 56 104 107 113 105 101 101 97 102 118 103 82 80 61 29 25 57 40 49 79 74 52 61 74 68 45 356 336 357 26 43 43 54 82 99 101 97 86 87 100 102 101 104
163 165 162 157 153 149 145 145 140 136 136 126 104 103 115 117 118 122 119 111 107 107 105 101 90 74 59 54 56 55 49 44 42 38 29 21 46 59 60 58 66 66 26 328 356 68 94 106 96 93 96 83 82 102 92 76 82 79 68 73 78 71 77 88 88 89 84 77 76 79 65 50 48 52 53 59 73 85 91 93 94 93 101 108 108 108 109
155 158 156 153 150 146 142 144 144 143 145 138 119 112 118 123 123 118 111 108 110 109 100 87 79 65 51 51 54 53 53 51 48 50 48 38 38 64 65 61 77 81 70 76 80 82 89 89 83 94 91 44 23 93 93 85 87 88 89 93 86 78 83 87 92 109 103 77 73 80 79 75 73 73 73 74 78 84 89 93 99 106 110 110 110 112 114
152 155 154 149 147 143 136 135 142 146 145 142 134 129 128 128 123 118 118 121 120 116 105 87 74 67 61 59 54 52 55 57 52 52 54 48 47 63 75 84 93 100 106 103 96 95 99 97 100 103 91 18 356 71 86 85 78 75 89 97 84 70 76 82 87 94 97 93 93 91 87 85 83 82 83 85 87 90 93 99 108 114 115 115 117 118 118
158 161 159 152 147 144 134 127 134 144 148 144 140 142 146 143 127 115 132 130 114 105 106 98 85 74 65 61 59 53 52 54 50 46 50 55 62 74 82 89 92 96 104 102 88 84 95 94 91 99 90 56 46 71 86 85 74 74 79 68 49 73 106 99 99 100 99 104 107 102 95 89 84 84 87 90 95 98 101 107 114 116 117 117 117 115 113
168 171 167 160 155 150 139 128 126 135 147 151 145 146 155 155 132 122 129 128 111 105 114 111 101 87 71 65 64 59 53 53 50 44 44 51 67 87 93 92 89 87 94 95 87 87 91 86 78 83 90 87 77 76 84 85 80 84 78 46 35 92 108 107 114 111 105 108 107 101 100 96 92 94 97 99 104 107 109 114 120 122 122 121 119 115 112
174 176 171 164 162 156 147 137 127 126 141 155 158 156 157 157 144 139 140 135 108 123 123 117 112 102 82 67 61 60 63 62 57 53 51 54 71 99 108 105 95 89 90 93 91 91 90 88 90 93 95 96 86 82 89 87 78 79 68 38 39 53 44 58 103 103 101 108 104 97 103 106 104 105 105 104 107 109 111 119 127 132 133 133 131 129 128
176 176 169 163 162 159 154 146 132 123 130 141 152 157 158 157 155 158 167 147 124 122 121 117 109 96 81 66 54 58 68 69 65 65 65 70 81 94 104 106 100 93 91 91 92 91 86 80 81 84 80 70 76 94 98 87 77 77 68 57 57 54 43 60 91 103 106 106 101 100 107 111 111 111 109 105 103 101 103 111 122 131 139 143 142 141 144
172 168 162 160 160 161 160 152 140 130 127 127 132 141 146 147 149 151 147 139 131 123 121 120 109 92 81 69 59 64 71 70 71 72 73 79 86 89 94 96 93 90 91 91 89 89 90 86 78 70 58 47 70 103 101 88 85 84 76 73 78 78 69 69 84 102 109 105 100 102 106 109 111 110 107 105 103 99 100 104 111 120 130 136 138 140 146
167 162 159 159 161 162 163 158 149 141 135 131 135 146 150 145 145 146 144 141 134 120 115 115 115 117 99 68 58 71 80 78 79 78 75 75 78 83 89 90 85 84 88 87 82 79 83 86 88 92 81 61 68 97 100 94 94 89 80 79 84 86 85 82 84 97 106 108 106 105 104 107 112 113 109 110 108 104 104 106 112 119 123 121 121 128 136
162 158 156 157 160 162 164 163 158 150 145 145 150 157 149 143 144 149 150 147 139 128 122 117 118 131 116 72 59 75 88 88 83 77 73 71 71 79 86 86 84 83 84 84 81 74 68 78 91 95 84 65 71 95 96 90 93 93 88 87 87 89 93 94 93 99 107 109 106 105 106 106 105 105 110 112 108 102 104 106 108 117 121 116 116 123 131
157 154 154 154 158 161 162 162 158 147 136 131 127 133 142 145 148 153 154 148 140 134 123 114 120 124 115 103 82 72 81 92 86 74 73 72 71 78 83 81 79 76 69 68 78 82 81 96 101 94 74 66 81 95 90 87 95 99 94 91 92 94 98 99 97 97 96 87 81 94 103 101 93 97 110 115 110 105 108 110 112 114 116 118 120 123 131
152 150 149 149 154 157 159 159 154 141 127 121 121 130 142 148 151 157 155 144 136 128 100 91 118 120 122 138 114 69 66 84 83 73 74 74 75 84 90 86 80 71 63 66 88 101 98 99 104 100 85 81 88 93 91 95 102 103 99 95 97 102 107 106 99 90 84 78 77 86 96 99 99 104 111 116 118 117 117 120 123 118 112 121 130 134 143
149 147 143 143 147 149 151 153 147 137 130 126 122 129 141 147 154 158 155 146 141 129 106 105 143 131 128 138 111 74 71 77 73 67 74 82 78 75 87 93 85 69 56 69 95 103 95 81 96 109 99 89 88 90 95 102 103 101 96 91 87 93 106 106 95 83 81 86 91 94 99 102 103 106 108 109 117 125 127 129 133 132 125 136 158 192 205
146 142 139 139 140 139 141 146 143 137 136 134 130 131 135 140 148 152 151 151 142 119 122 145 160 135 120 115 104 94 91 91 87 78 82 95 82 63 78 99 90 59 54 86 95 97 87 37 81 114 105 91 88 85 87 94 95 90 84 76 67 66 74 77 77 80 79 81 87 93 97 98 95 102 111 115 125 147 167 177 191 222 249 249 242 236 228
146 141 137 137 135 129 131 143 145 144 142 137 132 128 126 129 136 137 133 124 102 100 126 152 122 84 72 89 105 125 139 119 116 102 81 88 83 55 67 94 96 74 97 97 85 79 70 58 90 105 94 86 91 90 85 87 86 83 79 73 65 63 65 64 68 84 105 122 122 113 116 126 120 120 130 141 201 217 259 278 270 268 270 267 263 254 240
146 143 139 138 135 130 134 144 146 144 140 133 127 122 118 123 130 122 101 79 86 89 86 104 101 103 114 103 100 111 121 125 139 130 86 75 96 82 70 77 85 128 116 96 82 76 79 81 95 102 95 97 104 102 96 94 90 85 82 77 70 66 64 60 57 60 82 125 112 70 356 247 219 239 263 287 293 287 312 320 309 297 290 279 268 256 244
146 145 145 145 143 139 143 143 140 137 134 129 125 119 115 123 135 125 93 59 91 96 85 95 104 112 133 115 100 91 94 132 152 145 121 71 46 107 112 92 84 149 137 118 117 149 128 109 113 119 120 122 121 114 108 106 100 92 85 77 72 68 63 58 55 53 50 42 27 359 316 293 297 276 254 261 284 305 324 334 331 323 313 294 271 251 240
147 148 150 149 146 142 140 139 136 133 130 126 119 114 111 103 94 117 140 144 123 93 59 102 111 98 78 105 114 107 90 52 82 118 119 95 47 83 123 109 96 169 144 124 132 208 159 131 135 140 138 138 134 128 122 117 108 98 90 80 72 66 63 61 59 55 50 42 32 27 30 38 24 299 239 266 296 316 333 337 343 352 344 311 278 245 224
152 156 157 151 145 140 135 134 132 127 124 126 109 87 87 86 76 110 174 163 126 101 98 128 135 129 106 93 104 109 98 74 64 87 106 90 52 74 121 108 108 201 136 116 138 193 153 141 155 157 141 139 141 139 135 127 117 109 101 90 79 71 68 65 60 56 53 48 44 48 58 68 74 74 61 359 332 334 337 337 345 3 7 344 309 221 201
155 156 149 141 137 134 132 131 128 115 109 118 95 55 63 125 136 157 191 140 114 129 140 138 130 125 115 102 94 101 106 99 90 107 121 95 54 58 109 120 170 193 118 114 157 179 154 152 165 153 140 142 145 146 141 135 129 123 113 99 86 76 72 67 61 55 50 43 40 43 47 54 57 44 11 345 331 322 315 310 312 316 310 301 287 264 253
148 144 139 135 133 134 132 126 117 108 100 109 111 111 143 163 166 162 132 115 126 138 136 126 124 123 118 108 98 99 105 106 95 79 90 103 105 110 119 133 164 117 110 139 183 181 165 172 173 152 146 148 151 151 148 142 139 134 121 104 90 82 76 69 60 53 43 34 29 26 19 16 9 349 333 327 322 315 308 301 294 287 281 280 278 269 262
141 139 137 131 128 136 136 118 93 109 130 157 169 169 165 166 177 176 152 150 154 147 141 148 155 148 127 114 114 112 110 113 104 82 90 114 133 134 125 127 114 107 135 170 184 162 153 163 149 145 148 152 153 153 152 150 148 144 131 114 103 92 79 63 45 35 26 18 12 3 352 344 337 329 324 320 315 313 314 313 307 297 288 280 273 262 255
143 143 142 130 107 122 134 128 204 212 189 179 190 191 174 168 173 163 135 137 146 145 143 150 155 141 124 120 126 120 116 123 113 98 118 141 126 83 82 106 119 140 164 175 168 160 168 165 147 146 151 155 157 159 159 158 156 153 147 145 143 123 72 31 6 357 348 345 342 334 325 320 315 310 310 311 306 302 298 298 304 308 298 279 266 259 257
147 152 151 133 61 330 232 155 175 196 189 168 173 194 179 149 134 124 124 131 140 141 139 141 141 133 128 125 109 103 121 129 109 79 144 169 118 83 75 117 143 163 176 174 174 180 177 161 156 156 156 155 156 159 162 164 164 165 169 177 181 192 274 297 313 321 318 316 317 314 310 307 302 297 297 300 299 295 291 289 291 292 286 277 272 269 265
149 156 154 128 121 181 207 185 138 103 106 137 133 92 100 109 113 121 131 137 137 135 131 126 119 117 116 117 120 117 120 122 101 66 339 146 111 100 134 184 174 174 179 182 187 188 156 145 152 155 154 153 156 160 163 167 171 179 190 203 218 246 264 281 297 303 303 305 308 305 302 302 298 291 289 289 290 292 293 293 293 292 288 282 277 273 269
158 164 169 154 152 164 179 159 129 104 91 106 108 111 121 122 120 125 133 135 136 138 138 136 133 126 116 113 129 124 118 119 114 94 74 121 121 133 173 181 166 177 198 199 193 172 146 143 146 147 147 150 154 155 157 160 169 183 199 217 243 261 271 288 298 299 300 302 302 299 299 300 296 290 286 285 285 287 288 288 288 289 288 286 282 277 273
155 156 150 130 128 120 133 150 143 127 118 120 121 128 134 127 117 122 133 137 137 138 137 136 139 137 125 120 129 126 123 131 134 132 149 158 153 157 172 169 169 182 197 199 159 136 135 137 138 138 140 144 144 143 147 153 160 179 207 231 256 273 286 297 299 298 300 301 300 300 300 296 292 290 288 286 286 287 288 287 286 283 279 278 277 276 276
140 143 151 157 145 135 150 161 153 134 131 134 135 136 134 126 120 127 136 135 134 138 138 131 119 113 116 134 148 137 123 119 139 156 164 164 156 155 171 182 188 179 162 148 136 130 130 133 135 135 137 138 136 132 135 142 151 185 222 250 278 290 300 305 304 302 300 298 299 303 302 297 295 296 295 294 294 292 289 288 286 283 280 278 276 274 274
145 153 170 184 167 150 153 157 152 143 142 144 141 137 133 130 133 138 140 140 146 155 155 140 124 126 138 154 151 133 127 133 157 170 162 142 146 172 178 179 169 140 130 130 132 132 133 136 139 138 136 133 129 125 129 139 171 216 248 286 301 307 313 317 315 310 305 302 306 311 309 305 305 306 304 302 300 295 290 287 285 282 282 282 280 278 276
157 151 147 151 156 156 151 144 138 135 134 133 133 132 129 131 136 140 143 150 162 163 145 137 149 164 162 142 128 128 133 141 163 170 155 146 172 199 159 99 115 130 132 131 131 131 131 132 131 128 125 122 119 120 137 230 263 262 281 298 309 316 325 329 327 324 320 317 318 317 312 308 308 310 311 311 307 299 294 293 289 285 285 285 283 282 281